User: anonymous   Login
Location: *
(35.8942°N, 23.3025°E)
Time: 16:50:22
(UTC+00:00)
Language:

LilacSat-2 - Orbit

View from above orbital plane
View from above orbital plane
View from above satellite
View from above satellite

Ground track
Ground track

The orbit data is extracted from the following two-line orbital elements,

1 40908U 15049K   24105.18050657  .00009566  00000-0  38805-3 0  9997
2 40908  97.5279 113.4891 0011774 206.3431 153.7209 15.24773951473733
Epoch (UTC): 14 April 2024 04:19:55
Eccentricity: 0.0011774
inclination: 97.5279°
perigee height: 483 km
apogee height: 499 km
right ascension of ascending node: 113.4891°
argument of perigee: 206.3431°
revolutions per day: 15.24773951
mean anomaly at epoch: 153.7209°
orbit number at epoch: 47373

The dashed part of the orbit path shows where the satellite is in the earth's shadow,  

DLR